| time (UTC) | temp C | wind direction | speed KPH | gust KPH | rain 1hr cm | rain 24hr cm | rain mn cm | humidity % | barometer mb |
| 20260506195554 | 10 | 264 | 0.0 | 6.4 | 0.00 | 0.38 | 0.18 | 77 | 1012.7 |
| 20260506195017 | 10 | 312 | 1.6 | 6.4 | 0.00 | 0.38 | 0.18 | 76 | 1012.6 |
| 20260506194546 | 10 | 290 | 0.0 | 6.4 | 0.00 | 0.38 | 0.18 | 75 | 1012.6 |
| 20260506194006 | 10 | 319 | 1.6 | 6.4 | 0.00 | 0.38 | 0.18 | 75 | 1012.5 |
| 20260506193529 | 10 | 332 | 0.0 | 6.4 | 0.00 | 0.38 | 0.18 | 74 | 1012.5 |
| 20260506193033 | 10 | 322 | 1.6 | 6.4 | 0.00 | 0.38 | 0.18 | 74 | 1012.4 |
| 20260506192556 | 10 | 355 | 1.6 | 6.4 | 0.00 | 0.38 | 0.18 | 73 | 1012.4 |
| 20260506192020 | 11 | 287 | 1.6 | 4.8 | 0.00 | 0.38 | 0.18 | 73 | 1012.3 |
| 20260506191546 | 11 | 284 | 0.0 | 6.4 | 0.00 | 0.38 | 0.18 | 72 | 1012.1 |
| 20260506191009 | 11 | 324 | 1.6 | 4.8 | 0.00 | 0.38 | 0.18 | 71 | 1012.1 |
| 20260506190513 | 11 | 300 | 0.0 | 4.8 | 0.00 | 0.38 | 0.18 | 70 | 1012.0 |
| 20260506190036 | 11 | 280 | 0.0 | 4.8 | 0.00 | 0.38 | 0.18 | 70 | 1011.9 |
| 20260506185555 | 11 | 300 | 1.6 | 4.8 | 0.00 | 0.38 | 0.18 | 69 | 1011.9 |
| 20260506185012 | 11 | 307 | 1.6 | 6.4 | 0.00 | 0.38 | 0.18 | 69 | 1011.8 |
| 20260506184537 | 11 | 340 | 1.6 | 6.4 | 0.00 | 0.38 | 0.18 | 69 | 1011.7 |
| 20260506184102 | 11 | 306 | 0.0 | 3.2 | 0.00 | 0.38 | 0.18 | 71 | 1011.6 |
| 20260506183522 | 11 | 13 | 0.0 | 3.2 | 0.00 | 0.38 | 0.18 | 70 | 1011.5 |
| 20260506183049 | 11 | 271 | 0.0 | 1.6 | 0.00 | 0.38 | 0.18 | 71 | 1011.5 |
| 20260506182510 | 11 | 285 | 0.0 | 4.8 | 0.00 | 0.38 | 0.18 | 72 | 1011.4 |
| 20260506182035 | 11 | 286 | 1.6 | 4.8 | 0.00 | 0.38 | 0.18 | 71 | 1011.4 |
| 20260506181538 | 11 | 344 | 0.0 | 4.8 | 0.00 | 0.38 | 0.18 | 70 | 1011.3 |
| 20260506181103 | 11 | 306 | 0.0 | 8.0 | 0.00 | 0.38 | 0.18 | 71 | 1011.2 |
| 20260506180507 | 12 | 333 | 1.6 | 6.4 | 0.00 | 0.38 | 0.18 | 72 | 1011.1 |
| 20260506180030 | 12 | 295 | 0.0 | 11.3 | 0.00 | 0.38 | 0.18 | 72 | 1011.1 |
| 20260506175559 | 12 | 288 | 0.0 | 11.3 | 0.00 | 0.38 | 0.18 | 71 | 1011.0 |
| 20260506175014 | 12 | 223 | 0.0 | 3.2 | 0.00 | 0.38 | 0.18 | 72 | 1010.9 |
| 20260506174541 | 12 | 215 | 0.0 | 3.2 | 0.00 | 0.38 | 0.18 | 71 | 1010.9 |
| 20260506174003 | 12 | 206 | 0.0 | 1.6 | 0.00 | 0.38 | 0.18 | 72 | 1010.7 |
| 20260506173527 | 12 | 288 | 0.0 | 4.8 | 0.00 | 0.38 | 0.18 | 72 | 1010.7 |
| 20260506173042 | 12 | 224 | 0.0 | 4.8 | 0.00 | 0.38 | 0.18 | 72 | 1010.6 |
| 20260506172600 | 12 | 251 | 0.0 | 3.2 | 0.00 | 0.38 | 0.18 | 72 | 1010.6 |
| 20260506172021 | 12 | 212 | 0.0 | 3.2 | 0.00 | 0.38 | 0.18 | 74 | 1010.6 |
| 20260506171553 | 12 | 212 | 0.0 | 3.2 | 0.00 | 0.38 | 0.18 | 73 | 1010.6 |
| 20260506171009 | 12 | 264 | 0.0 | 4.8 | 0.00 | 0.38 | 0.18 | 72 | 1010.5 |
| 20260506170536 | 12 | 218 | 0.0 | 4.8 | 0.00 | 0.38 | 0.18 | 73 | 1010.5 |
| 20260506170039 | 12 | 218 | 0.0 | 4.8 | 0.00 | 0.38 | 0.18 | 74 | 1010.5 |
| 20260506165600 | 12 | 267 | 0.0 | 4.8 | 0.00 | 0.38 | 0.18 | 74 | 1010.4 |
| 20260506165127 | 12 | 196 | 0.0 | 4.8 | 0.00 | 0.38 | 0.18 | 74 | 1010.4 |
| 20260506164614 | 12 | 219 | 0.0 | 1.6 | 0.00 | 0.38 | 0.18 | 74 | 1010.3 |
| 20260506164101 | 12 | 292 | 0.0 | 3.2 | 0.00 | 0.38 | 0.18 | 75 | 1010.3 |
| 20260506163524 | 12 | 298 | 0.0 | 3.2 | 0.00 | 0.38 | 0.18 | 75 | 1010.3 |
| 20260506163058 | 12 | 209 | 0.0 | 3.2 | 0.00 | 0.38 | 0.18 | 76 | 1010.3 |
| 20260506162555 | 12 | 342 | 0.0 | 3.2 | 0.00 | 0.38 | 0.18 | 76 | 1010.3 |
| 20260506162017 | 12 | 281 | 0.0 | 3.2 | 0.00 | 0.38 | 0.18 | 76 | 1010.2 |
| 20260506161543 | 12 | 192 | 0.0 | 4.8 | 0.00 | 0.38 | 0.18 | 76 | 1010.3 |
| 20260506161004 | 12 | 312 | 0.0 | 4.8 | 0.00 | 0.38 | 0.18 | 75 | 1010.3 |
| 20260506160508 | 12 | 326 | 0.0 | 1.6 | 0.00 | 0.38 | 0.18 | 75 | 1010.3 |
| 20260506160037 | 12 | 301 | 0.0 | 3.2 | 0.00 | 0.38 | 0.18 | 75 | 1010.3 |
| 20260506155558 | 12 | 319 | 0.0 | 6.4 | 0.00 | 0.38 | 0.18 | 74 | 1010.3 |
| 20260506155021 | 12 | 316 | 0.0 | 6.4 | 0.00 | 0.38 | 0.18 | 74 | 1010.3 |
| 20260506154551 | 12 | 293 | 0.0 | 4.8 | 0.00 | 0.38 | 0.18 | 73 | 1010.3 |
| 20260506154009 | 12 | 229 | 1.6 | 6.4 | 0.00 | 0.38 | 0.18 | 73 | 1010.3 |
| 20260506153533 | 12 | 310 | 1.6 | 6.4 | 0.00 | 0.38 | 0.18 | 73 | 1010.3 |
| 20260506153038 | 12 | 334 | 0.0 | 4.8 | 0.00 | 0.38 | 0.18 | 72 | 1010.3 |
| 20260506152606 | 12 | 323 | 1.6 | 8.0 | 0.00 | 0.38 | 0.18 | 71 | 1010.3 |
| 20260506152027 | 12 | 221 | 0.0 | 16.1 | 0.00 | 0.38 | 0.18 | 71 | 1010.3 |
| 20260506151550 | 12 | 333 | 1.6 | 16.1 | 0.00 | 0.38 | 0.18 | 71 | 1010.3 |
| 20260506151019 | 12 | 266 | 1.6 | 11.3 | 0.00 | 0.38 | 0.18 | 71 | 1010.2 |
| 20260506150522 | 13 | 306 | 1.6 | 6.4 | 0.00 | 0.38 | 0.18 | 70 | 1010.2 |
| 20260506150050 | 13 | 226 | 1.6 | 8.0 | 0.00 | 0.38 | 0.18 | 72 | 1010.2 |
| 20260506145503 | 13 | 215 | 0.0 | 9.7 | 0.00 | 0.38 | 0.18 | 70 | 1010.2 |
| 20260506145024 | 13 | 316 | 3.2 | 11.3 | 0.00 | 0.38 | 0.18 | 68 | 1010.2 |
| 20260506144546 | 13 | 212 | 3.2 | 11.3 | 0.00 | 0.38 | 0.18 | 65 | 1010.1 |
| 20260506144058 | 14 | 317 | 3.2 | 9.7 | 0.00 | 0.38 | 0.18 | 69 | 1010.1 |
| 20260506143519 | 13 | 319 | 3.2 | 9.7 | 0.00 | 0.38 | 0.18 | 71 | 1010.1 |
| 20260506143044 | 13 | 243 | 3.2 | 11.3 | 0.00 | 0.38 | 0.18 | 70 | 1010.0 |
| 20260506142501 | 13 | 317 | 3.2 | 11.3 | 0.00 | 0.38 | 0.18 | 70 | 1010.0 |
| 20260506142025 | 13 | 257 | 3.2 | 8.0 | 0.00 | 0.38 | 0.18 | 71 | 1010.1 |
| 20260506141607 | 13 | 11 | 0.0 | 6.4 | 0.00 | 0.38 | 0.18 | 70 | 1010.1 |
| 20260506141021 | 13 | 11 | 0.0 | 8.0 | 0.00 | 0.38 | 0.18 | 71 | 1010.0 |
| 20260506140548 | 13 | 288 | 3.2 | 8.0 | 0.00 | 0.38 | 0.18 | 71 | 1009.9 |
| 20260506140051 | 13 | 321 | 0.0 | 14.5 | 0.00 | 0.38 | 0.18 | 72 | 1010.0 |
| 20260506135510 | 13 | 147 | 3.2 | 14.5 | 0.00 | 0.38 | 0.18 | 71 | 1010.0 |
| 20260506135040 | 13 | 222 | 3.2 | 12.9 | 0.00 | 0.38 | 0.18 | 71 | 1010.0 |
| 20260506134605 | 14 | 262 | 3.2 | 8.0 | 0.00 | 0.38 | 0.18 | 70 | 1010.0 |
| 20260506134002 | 14 | 181 | 1.6 | 6.4 | 0.00 | 0.38 | 0.18 | 74 | 1010.0 |
| 20260506133528 | 14 | 254 | 0.0 | 4.8 | 0.00 | 0.38 | 0.18 | 73 | 1010.0 |
| 20260506133102 | 13 | 240 | 0.0 | 6.4 | 0.00 | 0.38 | 0.18 | 73 | 1010.0 |
| 20260506132512 | 13 | 326 | 0.0 | 8.0 | 0.00 | 0.38 | 0.18 | 71 | 1010.0 |
| 20260506132038 | 13 | 169 | 1.6 | 9.7 | 0.00 | 0.38 | 0.18 | 72 | 1010.0 |
| 20260506131513 | 13 | 213 | 3.2 | 9.7 | 0.00 | 0.38 | 0.18 | 72 | 1010.0 |
| 20260506131035 | 13 | 180 | 0.0 | 6.4 | 0.00 | 0.38 | 0.18 | 73 | 1010.0 |
| 20260506130602 | 13 | 236 | 1.6 | 4.8 | 0.00 | 0.38 | 0.18 | 75 | 1009.9 |
| 20260506130012 | 13 | 348 | 0.0 | 6.4 | 0.00 | 0.38 | 0.18 | 72 | 1009.9 |
| 20260506125525 | 13 | 299 | 0.0 | 3.2 | 0.00 | 0.38 | 0.18 | 74 | 1009.8 |
| 20260506125050 | 13 | 18 | 0.0 | 3.2 | 0.00 | 0.38 | 0.18 | 74 | 1009.8 |
| 20260506124555 | 13 | 336 | 0.0 | 4.8 | 0.00 | 0.38 | 0.18 | 75 | 1009.8 |
| 20260506124015 | 13 | 264 | 0.0 | 4.8 | 0.00 | 0.38 | 0.18 | 75 | 1009.7 |
| 20260506123539 | 13 | 284 | 0.0 | 3.2 | 0.00 | 0.38 | 0.18 | 76 | 1009.8 |
| 20260506123057 | 13 | 253 | 0.0 | 6.4 | 0.00 | 0.38 | 0.18 | 77 | 1009.8 |
| 20260506122517 | 12 | 161 | 1.6 | 6.4 | 0.00 | 0.38 | 0.18 | 76 | 1009.9 |
| 20260506122022 | 12 | 252 | 0.0 | 6.4 | 0.00 | 0.38 | 0.18 | 76 | 1009.9 |
| 20260506121558 | 12 | 320 | 1.6 | 8.0 | 0.00 | 0.38 | 0.18 | 75 | 1009.9 |
| 20260506121008 | 13 | 326 | 3.2 | 8.0 | 0.00 | 0.38 | 0.18 | 78 | 1009.9 |
| 20260506120515 | 12 | 233 | 3.2 | 8.0 | 0.00 | 0.38 | 0.18 | 78 | 1009.9 |
| 20260506120107 | 12 | 203 | 0.0 | 6.4 | 0.00 | 0.38 | 0.18 | 78 | 1009.8 |
| 20260506115501 | 12 | 189 | 0.0 | 6.4 | 0.00 | 0.38 | 0.18 | 79 | 1009.8 |
| 20260506115027 | 12 | 215 | 1.6 | 6.4 | 0.00 | 0.38 | 0.18 | 78 | 1009.8 |
| 20260506114553 | 12 | 233 | 0.0 | 4.8 | 0.00 | 0.38 | 0.18 | 78 | 1009.8 |
| 20260506114014 | 12 | 223 | 0.0 | 6.4 | 0.00 | 0.38 | 0.18 | 78 | 1009.8 |
| 20260506113539 | 12 | 184 | 1.6 | 6.4 | 0.00 | 0.38 | 0.18 | 78 | 1009.9 |
| 20260506113110 | 12 | 199 | 0.0 | 4.8 | 0.00 | 0.38 | 0.18 | 85 | 1009.8 |
| 20260506112529 | 12 | 197 | 0.0 | 3.2 | 0.00 | 0.38 | 0.18 | 84 | 1009.9 |
| 20260506112052 | 11 | 175 | 0.0 | 4.8 | 0.00 | 0.38 | 0.18 | 84 | 1009.9 |
| 20260506111558 | 11 | 186 | 0.0 | 6.4 | 0.00 | 0.38 | 0.18 | 84 | 1009.9 |
| 20260506111016 | 11 | 210 | 1.6 | 4.8 | 0.00 | 0.38 | 0.18 | 85 | 1009.9 |
| 20260506110543 | 11 | 307 | 0.0 | 4.8 | 0.00 | 0.38 | 0.18 | 85 | 1009.9 |
| 20260506110047 | 11 | 185 | 0.0 | 9.7 | 0.00 | 0.38 | 0.18 | 84 | 1009.9 |
| 20260506105507 | 11 | 207 | 1.6 | 9.7 | 0.00 | 0.38 | 0.18 | 85 | 1009.9 |
| 20260506105032 | 11 | 192 | 1.6 | 6.4 | 0.00 | 0.38 | 0.18 | 85 | 1010.0 |
| 20260506104540 | 11 | 169 | 1.6 | 6.4 | 0.00 | 0.38 | 0.18 | 86 | 1010.0 |
| 20260506104103 | 11 | 166 | 0.0 | 6.4 | 0.00 | 0.38 | 0.18 | 86 | 1010.1 |
| 20260506103524 | 11 | 176 | 1.6 | 6.4 | 0.00 | 0.38 | 0.18 | 86 | 1010.1 |
| 20260506103054 | 11 | 152 | 1.6 | 8.0 | 0.00 | 0.38 | 0.18 | 87 | 1010.1 |
| 20260506102556 | 11 | 161 | 1.6 | 8.0 | 0.00 | 0.38 | 0.18 | 88 | 1010.0 |
| 20260506102018 | 11 | 239 | 0.0 | 6.4 | 0.00 | 0.38 | 0.18 | 90 | 1010.0 |
| 20260506101546 | 10 | 340 | 1.6 | 6.4 | 0.00 | 0.38 | 0.18 | 90 | 1010.0 |
| 20260506101003 | 10 | 310 | 1.6 | 6.4 | 0.00 | 0.38 | 0.18 | 90 | 1010.0 |
| 20260506100507 | 10 | 330 | 0.0 | 4.8 | 0.00 | 0.38 | 0.18 | 90 | 1010.1 |
| 20260506100034 | 10 | 233 | 0.0 | 3.2 | 0.00 | 0.38 | 0.18 | 91 | 1010.0 |
| 20260506095601 | 10 | 246 | 0.0 | 4.8 | 0.00 | 0.38 | 0.18 | 91 | 1010.1 |
| 20260506095022 | 10 | 325 | 0.0 | 8.0 | 0.00 | 0.38 | 0.18 | 91 | 1010.0 |
| 20260506094548 | 10 | 241 | 1.6 | 8.0 | 0.00 | 0.38 | 0.18 | 91 | 1010.0 |
| 20260506094007 | 10 | 303 | 1.6 | 6.4 | 0.00 | 0.38 | 0.18 | 91 | 1010.0 |
| 20260506093534 | 10 | 319 | 0.0 | 9.7 | 0.00 | 0.38 | 0.18 | 92 | 1010.0 |
| 20260506093055 | 10 | 314 | 0.0 | 9.7 | 0.00 | 0.38 | 0.18 | 92 | 1009.9 |
| 20260506092517 | 10 | 360 | 0.0 | 9.7 | 0.00 | 0.38 | 0.18 | 93 | 1009.9 |
| 20260506092043 | 9 | 302 | 3.2 | 9.7 | 0.00 | 0.38 | 0.18 | 93 | 1009.8 |
| 20260506091506 | 9 | 302 | 1.6 | 8.0 | 0.00 | 0.38 | 0.18 | 93 | 1009.8 |
| 20260506091032 | 9 | 311 | 0.0 | 8.0 | 0.00 | 0.38 | 0.18 | 93 | 1009.8 |
| 20260506090557 | 9 | 243 | 0.0 | 6.4 | 0.00 | 0.38 | 0.18 | 93 | 1009.8 |
| 20260506090045 | 9 | 330 | 0.0 | 6.4 | 0.00 | 0.38 | 0.18 | 94 | 1009.8 |
| 20260506085506 | 9 | 293 | 0.0 | 4.8 | 0.00 | 0.38 | 0.18 | 94 | 1009.7 |
| 20260506085032 | 9 | 267 | 0.0 | 6.4 | 0.00 | 0.38 | 0.18 | 94 | 1009.6 |
| 20260506084503 | 8 | 300 | 1.6 | 6.4 | 0.00 | 0.38 | 0.18 | 94 | 1009.6 |
| 20260506084028 | 8 | 302 | 1.6 | 8.0 | 0.00 | 0.38 | 0.18 | 94 | 1009.6 |
| 20260506083556 | 8 | 314 | 1.6 | 8.0 | 0.00 | 0.38 | 0.18 | 94 | 1009.5 |
| 20260506083104 | 8 | 308 | 1.6 | 6.4 | 0.00 | 0.38 | 0.18 | 94 | 1009.5 |
| 20260506082523 | 8 | 311 | 1.6 | 6.4 | 0.00 | 0.38 | 0.18 | 94 | 1009.5 |
| 20260506082048 | 8 | 315 | 1.6 | 6.4 | 0.00 | 0.38 | 0.18 | 94 | 1009.5 |
| 20260506081508 | 8 | 333 | 1.6 | 6.4 | 0.03 | 0.38 | 0.18 | 94 | 1009.4 |
| 20260506081036 | 8 | 290 | 0.0 | 6.4 | 0.03 | 0.38 | 0.18 | 94 | 1009.3 |
| 20260506080604 | 8 | 314 | 1.6 | 6.4 | 0.03 | 0.38 | 0.18 | 94 | 1009.3 |
| 20260506073008 | 8 | 214 | 0.0 | 6.4 | 0.03 | 0.38 | 0.18 | 94 | 1009.1 |
| 20260506072535 | 8 | 216 | 0.0 | 8.0 | 0.03 | 0.38 | 0.18 | 93 | 1009.2 |
| 20260506072036 | 8 | 304 | 0.0 | 8.0 | 0.03 | 0.38 | 0.18 | 93 | 1009.1 |
| 20260506071603 | 8 | 286 | 0.0 | 4.8 | 0.00 | 0.36 | 0.15 | 93 | 1009.0 |
| 20260506071037 | 8 | 298 | 0.0 | 4.8 | 0.00 | 0.36 | 0.15 | 93 | 1009.0 |
| 20260506070541 | 8 | 337 | 0.0 | 3.2 | 0.00 | 0.36 | 0.15 | 93 | 1009.1 |
| 20260506070108 | 8 | 307 | 0.0 | 6.4 | 0.00 | 0.36 | 0.15 | 93 | 1009.0 |
| 20260506062046 | -17 | 0.0 | 0.0 | 0.00 | 0.36 | 0.15 | 1008.8 | ||
| 20260506061548 | -17 | 0.0 | 0.0 | 0.00 | 0.36 | 0.15 | 1008.8 | ||
| 20260506061012 | -17 | 0.0 | 0.0 | 0.00 | 0.36 | 0.15 | 1008.8 | ||
| 20260506060516 | -17 | 0.0 | 0.0 | 0.00 | 0.36 | 0.15 | 1008.8 | ||
| 20260506051006 | -17 | 0.0 | 0.0 | 0.00 | 0.36 | 0.15 | 1008.7 | ||
| 20260506050513 | -17 | 0.0 | 0.0 | 0.00 | 0.36 | 0.15 | 1008.7 | ||
| 20260506045029 | -17 | 0.0 | 0.0 | 0.00 | 0.36 | 0.15 | 1008.6 | ||
| 20260506044549 | -17 | 0.0 | 0.0 | 0.00 | 0.36 | 0.15 | 1008.6 | ||
| 20260506044100 | -17 | 0.0 | 0.0 | 0.00 | 0.36 | 0.15 | 1008.6 | ||
| 20260506043521 | -17 | 0.0 | 0.0 | 0.00 | 0.36 | 0.15 | 1008.6 | ||
| 20260506043049 | -17 | 0.0 | 0.0 | 0.00 | 0.36 | 0.15 | 1008.6 | ||
| 20260506042610 | -17 | 0.0 | 0.0 | 0.00 | 0.36 | 0.15 | 1008.6 | ||
| 20260506042104 | -17 | 0.0 | 0.0 | 0.00 | 0.36 | 0.15 | 1008.6 | ||
| 20260506041524 | -17 | 0.0 | 0.0 | 0.00 | 0.36 | 0.15 | 1008.6 | ||
| 20260506041153 | -17 | 0.0 | 0.0 | 0.00 | 0.36 | 0.15 | 1008.7 | ||
| 20260506040504 | -17 | 0.0 | 0.0 | 0.00 | 0.36 | 0.15 | 1008.7 | ||
| 20260506040029 | -17 | 0.0 | 0.0 | 0.00 | 0.36 | 0.15 | 1008.7 | ||
| 20260506035521 | -17 | 0.0 | 0.0 | 0.03 | 0.36 | 0.15 | 1008.7 | ||
| 20260506035049 | -17 | 0.0 | 0.0 | 0.03 | 0.36 | 0.15 | 1008.6 | ||
| 20260506034511 | -17 | 0.0 | 0.0 | 0.03 | 0.36 | 0.15 | 1008.6 | ||
| 20260506034038 | -17 | 0.0 | 0.0 | 0.03 | 0.36 | 0.15 | 1008.7 | ||
| 20260506033518 | -17 | 0.0 | 0.0 | 0.03 | 0.36 | 0.15 | 1008.7 | ||
| 20260506033024 | -17 | 0.0 | 0.0 | 0.03 | 0.36 | 0.15 | 1008.7 | ||
| 20260506032530 | -17 | 0.0 | 0.0 | 0.03 | 0.36 | 0.15 | 1008.7 | ||
| 20260506032058 | -17 | 0.0 | 0.0 | 0.03 | 0.36 | 0.15 | 1008.7 | ||
| 20260506031523 | -17 | 0.0 | 0.0 | 0.03 | 0.36 | 0.15 | 1008.7 | ||
| 20260506031013 | 7 | 280 | 0.0 | 3.2 | 0.03 | 0.36 | 0.15 | 88 | 1008.8 |
| 20260506030537 | 7 | 280 | 0.0 | 3.2 | 0.03 | 0.36 | 0.15 | 88 | 1008.8 |
| 20260506025551 | 8 | 300 | 0.0 | 1.6 | 0.00 | 0.33 | 0.15 | 89 | 1008.9 |
| 20260506025057 | 8 | 290 | 0.0 | 3.2 | 0.00 | 0.33 | 0.15 | 89 | 1008.9 |
| 20260506024523 | 8 | 300 | 0.0 | 6.4 | 0.00 | 0.33 | 0.15 | 88 | 1008.9 |
| 20260506024046 | 8 | 313 | 0.0 | 4.8 | 0.00 | 0.33 | 0.15 | 89 | 1008.9 |
| 20260506023508 | 8 | 282 | 1.6 | 4.8 | 0.00 | 0.33 | 0.15 | 88 | 1008.9 |
| 20260506023037 | 8 | 304 | 0.0 | 4.8 | 0.00 | 0.33 | 0.15 | 88 | 1008.9 |
| 20260506022601 | 8 | 310 | 0.0 | 6.4 | 0.00 | 0.33 | 0.15 | 88 | 1009.0 |
| 20260506022024 | 8 | 359 | 0.0 | 6.4 | 0.00 | 0.33 | 0.15 | 89 | 1008.9 |
| 20260506021548 | 8 | 304 | 0.0 | 6.4 | 0.00 | 0.33 | 0.15 | 88 | 1008.9 |
| 20260506021055 | 8 | 323 | 0.0 | 6.4 | 0.00 | 0.33 | 0.15 | 88 | 1008.9 |
| 20260506020619 | 8 | 304 | 0.0 | 4.8 | 0.00 | 0.33 | 0.15 | 89 | 1008.9 |
| 20260506020024 | 8 | 300 | 0.0 | 4.8 | 0.00 | 0.33 | 0.15 | 89 | 1008.9 |
| 20260506015550 | 8 | 290 | 0.0 | 3.2 | 0.00 | 0.33 | 0.15 | 89 | 1008.9 |
| 20260506015012 | 8 | 310 | 0.0 | 4.8 | 0.00 | 0.33 | 0.15 | 89 | 1009.0 |
| 20260506014517 | 8 | 316 | 0.0 | 4.8 | 0.00 | 0.33 | 0.15 | 89 | 1009.0 |
| 20260506014042 | 8 | 289 | 0.0 | 4.8 | 0.00 | 0.33 | 0.15 | 89 | 1009.0 |
| 20260506013501 | 8 | 303 | 1.6 | 4.8 | 0.00 | 0.33 | 0.15 | 88 | 1009.0 |
| 20260506013028 | 8 | 296 | 1.6 | 4.8 | 0.00 | 0.33 | 0.15 | 89 | 1009.0 |
| 20260506012602 | 8 | 312 | 0.0 | 4.8 | 0.00 | 0.33 | 0.15 | 89 | 1009.0 |
| 20260506012025 | 8 | 321 | 0.0 | 4.8 | 0.00 | 0.33 | 0.15 | 89 | 1009.0 |
| 20260506011556 | 8 | 276 | 0.0 | 3.2 | 0.00 | 0.33 | 0.15 | 90 | 1009.0 |
| 20260506011017 | 8 | 288 | 0.0 | 4.8 | 0.00 | 0.33 | 0.15 | 90 | 1009.0 |
| 20260506010616 | 8 | 298 | 0.0 | 4.8 | 0.00 | 0.33 | 0.15 | 91 | 1009.0 |
| 20260506010058 | 8 | 300 | 0.0 | 1.6 | 0.00 | 0.33 | 0.15 | 91 | 1009.0 |
| 20260506005509 | 8 | 274 | 0.0 | 1.6 | 0.00 | 0.33 | 0.15 | 91 | 1009.0 |
| 20260506005036 | 8 | 293 | 0.0 | 1.6 | 0.00 | 0.33 | 0.15 | 91 | 1009.0 |
| 20260506004628 | 8 | 300 | 0.0 | 1.6 | 0.00 | 0.33 | 0.15 | 91 | 1009.1 |
| 20260506004021 | 8 | 300 | 0.0 | 1.6 | 0.00 | 0.33 | 0.15 | 91 | 1009.1 |
| 20260506003526 | 8 | 302 | 0.0 | 3.2 | 0.03 | 0.33 | 0.15 | 91 | 1009.2 |
| 20260506003053 | 8 | 285 | 0.0 | 4.8 | 0.03 | 0.33 | 0.15 | 91 | 1009.2 |
| 20260506002514 | 8 | 305 | 0.0 | 4.8 | 0.03 | 0.33 | 0.15 | 92 | 1009.3 |
| 20260506002021 | 8 | 310 | 0.0 | 3.2 | 0.03 | 0.33 | 0.15 | 92 | 1009.3 |
| 20260506001547 | 8 | 280 | 0.0 | 3.2 | 0.05 | 0.33 | 0.15 | 92 | 1009.3 |
| 20260506001053 | 8 | 279 | 0.0 | 3.2 | 0.05 | 0.33 | 0.15 | 91 | 1009.3 |
| 20260506000558 | 8 | 260 | 0.0 | 4.8 | 0.05 | 0.33 | 0.15 | 91 | 1009.4 |
| 20260506000011 | 8 | 309 | 0.0 | 4.8 | 0.05 | 0.33 | 0.15 | 91 | 1009.4 |
| 20260505235536 | 8 | 311 | 0.0 | 3.2 | 0.05 | 0.36 | 0.15 | 92 | 1009.4 |
| 20260505235103 | 8 | 306 | 0.0 | 3.2 | 0.05 | 0.36 | 0.15 | 91 | 1009.5 |
| 20260505234559 | 8 | 311 | 0.0 | 6.4 | 0.08 | 0.36 | 0.15 | 91 | 1009.6 |
| 20260505234029 | 8 | 283 | 1.6 | 6.4 | 0.08 | 0.36 | 0.15 | 91 | 1009.6 |
| 20260505233554 | 8 | 25 | 1.6 | 6.4 | 0.05 | 0.33 | 0.13 | 92 | 1009.6 |
| 20260505233018 | 8 | 332 | 1.6 | 6.4 | 0.08 | 0.33 | 0.13 | 92 | 1009.5 |
| 20260505232542 | 8 | 333 | 0.0 | 4.8 | 0.08 | 0.33 | 0.13 | 92 | 1009.6 |
| 20260505232005 | 8 | 309 | 0.0 | 6.4 | 0.10 | 0.33 | 0.13 | 92 | 1009.6 |
| 20260505231534 | 8 | 324 | 0.0 | 4.8 | 0.08 | 0.33 | 0.10 | 92 | 1009.6 |
| 20260505231057 | 8 | 297 | 0.0 | 4.8 | 0.08 | 0.33 | 0.10 | 92 | 1009.6 |
| 20260505230622 | 8 | 314 | 0.0 | 3.2 | 0.10 | 0.33 | 0.10 | 92 | 1009.6 |
| 20260505230015 | 9 | 293 | 1.6 | 4.8 | 0.10 | 0.33 | 0.10 | 92 | 1009.7 |
| 20260505225519 | 9 | 310 | 0.0 | 4.8 | 0.08 | 0.43 | 0.08 | 92 | 1009.7 |
| 20260505225043 | 9 | 283 | 0.0 | 4.8 | 0.08 | 0.43 | 0.08 | 92 | 1009.8 |
| 20260505224507 | 9 | 312 | 0.0 | 4.8 | 0.08 | 0.41 | 0.05 | 92 | 1009.8 |
| 20260505224032 | 9 | 316 | 1.6 | 4.8 | 0.08 | 0.41 | 0.05 | 92 | 1009.8 |
| 20260505223558 | 9 | 316 | 1.6 | 6.4 | 0.08 | 0.41 | 0.05 | 92 | 1009.8 |
| 20260505223105 | 9 | 319 | 0.0 | 6.4 | 0.08 | 0.38 | 0.05 | 92 | 1009.8 |
| 20260505222523 | 9 | 283 | 0.0 | 4.8 | 0.08 | 0.38 | 0.05 | 92 | 1009.8 |
| 20260505222048 | 9 | 313 | 0.0 | 6.4 | 0.05 | 0.36 | 0.03 | 92 | 1009.8 |
| 20260505221509 | 9 | 319 | 1.6 | 8.0 | 0.08 | 0.36 | 0.03 | 92 | 1009.8 |
| 20260505221034 | 10 | 329 | 1.6 | 8.0 | 0.08 | 0.36 | 0.03 | 92 | 1009.7 |
| 20260505220605 | 10 | 321 | 1.6 | 8.0 | 0.05 | 0.33 | 0.00 | 93 | 1009.7 |
| 20260505220008 | 10 | 309 | 0.0 | 4.8 | 0.08 | 0.33 | 0.00 | 93 | 1009.7 |
| 20260505215527 | 10 | 310 | 0.0 | 6.4 | 0.08 | 0.38 | 0.33 | 94 | 1009.7 |
| 20260505215054 | 10 | 304 | 0.0 | 6.4 | 0.08 | 0.38 | 0.33 | 94 | 1009.8 |
| 20260505214520 | 10 | 274 | 0.0 | 0.0 | 0.05 | 0.36 | 0.33 | 94 | 1009.8 |
| 20260505214041 | 10 | 274 | 0.0 | 0.0 | 0.08 | 0.36 | 0.33 | 94 | 1009.9 |
| 20260505213616 | 10 | 274 | 0.0 | 0.0 | 0.08 | 0.36 | 0.33 | 94 | 1009.9 |
| 20260505213048 | 10 | 274 | 0.0 | 1.6 | 0.05 | 0.33 | 0.30 | 94 | 1009.9 |
| 20260505212508 | 10 | 270 | 0.0 | 1.6 | 0.05 | 0.33 | 0.30 | 94 | 1009.8 |
| 20260505212032 | 10 | 270 | 0.0 | 3.2 | 0.08 | 0.33 | 0.30 | 94 | 1009.8 |
| 20260505211614 | 10 | 291 | 0.0 | 3.2 | 0.05 | 0.33 | 0.28 | 94 | 1009.9 |
| 20260505211022 | 10 | 18 | 0.0 | 1.6 | 0.05 | 0.33 | 0.28 | 94 | 1009.9 |
| 20260505210510 | 10 | 288 | 0.0 | 0.0 | 0.08 | 0.33 | 0.28 | 94 | 1009.9 |
| 20260505210036 | 10 | 288 | 0.0 | 0.0 | 0.05 | 0.30 | 0.25 | 94 | 1009.9 |
| 20260505205602 | 10 | 345 | 0.0 | 0.0 | 0.05 | 0.33 | 0.25 | 93 | 1009.9 |
| 20260505205024 | 10 | 345 | 0.0 | 0.0 | 0.05 | 0.33 | 0.25 | 93 | 1009.9 |
| 20260505204551 | 10 | 345 | 0.0 | 0.0 | 0.08 | 0.33 | 0.25 | 93 | 1009.9 |
| 20260505204011 | 10 | 345 | 0.0 | 0.0 | 0.05 | 0.33 | 0.23 | 93 | 1009.9 |
| 20260505203538 | 10 | 345 | 0.0 | 0.0 | 0.05 | 0.33 | 0.23 | 93 | 1009.9 |
| 20260505203107 | 10 | 345 | 0.0 | 0.0 | 0.05 | 0.33 | 0.23 | 93 | 1009.9 |
| 20260505202525 | 10 | 345 | 0.0 | 0.0 | 0.08 | 0.33 | 0.23 | 93 | 1010.0 |
| 20260505202050 | 10 | 345 | 0.0 | 0.0 | 0.05 | 0.30 | 0.23 | 93 | 1009.9 |
| 20260505201607 | 10 | 345 | 0.0 | 0.0 | 0.05 | 0.30 | 0.23 | 93 | 1009.9 |
| 20260505201024 | 10 | 11 | 0.0 | 0.0 | 0.08 | 0.30 | 0.23 | 93 | 1009.9 |
| 20260505200552 | 10 | 11 | 0.0 | 0.0 | 0.05 | 0.28 | 0.20 | 93 | 1009.9 |
| 20260505200106 | 10 | 11 | 0.0 | 0.0 | 0.05 | 0.28 | 0.20 | 93 | 1009.9 |